• MPC Preparation (Info)

  • MPEC 2019-F31 : 2014 OO394

    The following Minor Planet Electronic Circular may be linked-to from your own Web pages, but must not otherwise be redistributed electronically.

    A form allowing access to any MPEC is at the bottom of this page.


    Read MPEC 2019-F30 Read MPEC 2019-F32


    M.P.E.C. 2019-F31                                Issued 2019 Mar. 19, 02:50 UT
    
         The Minor Planet Electronic Circulars contain information on unusual
             minor planets and routine data on comets.  They are published
        on behalf of Division F of the International Astronomical Union by the
              Minor Planet Center, Smithsonian Astrophysical Observatory,
                              Cambridge, MA 02138, U.S.A.
    
                 Prepared using the Tamkin Foundation Computer Network
    
                                  MPC@CFA.HARVARD.EDU
                URL https://www.minorplanetcenter.net/    ISSN 1523-6714
    
                                      2014 OO394
    
    Additional Observations:
         K14Od4O  C2013 08 14.51818 23 06 36.594-08 06 52.99         23.1 GVEF031F51
         K14Od4O  C2013 08 14.53223 23 06 36.527-08 06 53.26         22.7 GVEF031F51
         K14Od4O  C2013 08 14.54646 23 06 36.449-08 06 53.65         22.7 GVEF031F51
         K14Od4O KC2013 10 21.32116 23 01 13.442-08 38 11.01         22.9 GVEF031F51
         K14Od4O  C2014 07 28.54451 23 15 36.636-07 03 18.59         22.5 GVEF031F51
         K14Od4O  C2014 07 28.55593 23 15 36.595-07 03 18.78         22.9 GVEF031F51
         K14Od4O  C2014 07 28.56730 23 15 36.568-07 03 18.71         21.9 GVEF031F51
         K14Od4O  C2014 07 28.57868 23 15 36.514-07 03 19.37         23.3 GVEF031F51
         K14Od4O KC2014 08 04.52556 23 15 10.652-07 06 12.46         22.8 GVEF031F51
         K14Od4O KC2014 08 05.52733 23 15 06.668-07 06 39.01         22.7 GVEF031F51
         K14Od4O KC2014 09 12.51288 23 12 02.314-07 25 57.11         22.2 GVEF031F51
         K14Od4O  C2014 09 17.33360 23 11 37.180-07 28 27.55         22.8 GVEF031F51
         K14Od4O  C2014 09 17.34546 23 11 37.132-07 28 27.50         22.8 GVEF031F51
         K14Od4O  C2014 09 17.35733 23 11 37.059-07 28 28.15         23.3 GVEF031F51
         K14Od4O  C2014 09 17.36919 23 11 37.000-07 28 28.61         22.8 GVEF031F51
         K14Od4O KC2015 07 23.52857 23 23 40.615-06 05 00.56         22.8 GVEF031F51
         K14Od4O  C2015 09 09.41284 23 20 11.685-06 27 32.51         22.3 GVEF031F51
         K14Od4O  C2015 09 09.42499 23 20 11.621-06 27 32.80         22.5 GVEF031F51
         K14Od4O  C2015 09 09.43717 23 20 11.564-06 27 33.36         21.8 GVEF031F51
         K14Od4O KC2015 10 29.26648 23 16 24.567-06 49 16.94         22.4 GVEF031F51
         K14Od4O KC2015 11 02.30848 23 16 12.713-06 50 15.22         23.5 GVEF031F51
         K14Od4O KC2015 11 17.20917 23 15 42.387-06 52 19.24         23.1 GVEF031F51
         K14Od4O  C2015 12 09.20750 23 15 40.622-06 50 43.20         22.8 GVEF031F51
         K14Od4O  C2015 12 09.21975 23 15 40.622-06 50 42.86         23.1 GVEF031F51
         K14Od4O  C2015 12 09.23202 23 15 40.658-06 50 42.73         23.3 GVEF031F51
         K14Od4O  C2015 12 09.24430 23 15 40.653-06 50 42.43         23.0 GVEF031F51
         K14Od4O KC2017 07 22.56565 23 39 14.794-04 10 31.10         22.4 GVEF031F51
         K14Od4O KC2017 07 30.49397 23 38 52.692-04 13 05.20         22.9 GVEF031F51
         K14Od4O  C2017 08 01.56637 23 38 46.037-04 13 50.35         22.8 GVEF031F51
         K14Od4O  C2017 08 03.53158 23 38 39.425-04 14 35.55         23.3 GVEF031F51
         K14Od4O  C2017 08 03.54235 23 38 39.403-04 14 35.79         22.9 GVEF031F51
         K14Od4O  C2017 08 03.55313 23 38 39.368-04 14 36.10         22.7 GVEF031F51
         K14Od4O  C2017 08 03.56388 23 38 39.324-04 14 36.19         23.5 GVEF031F51
         K14Od4O  C2017 08 17.47615 23 37 44.696-04 20 40.23         22.7 GVEF031F51
         K14Od4O  C2017 08 17.48721 23 37 44.636-04 20 40.00         22.8 GVEF031F51
         K14Od4O  C2017 08 17.49826 23 37 44.576-04 20 40.60         22.8 GVEF031F51
         K14Od4O  C2017 08 17.50933 23 37 44.540-04 20 40.87         22.2 GVEF031F51
         K14Od4O  C2017 09 14.42395 23 35 27.080-04 35 16.78         21.6 GVEF031F51
         K14Od4O  C2017 09 14.43589 23 35 27.010-04 35 17.16         22.3 GVEF031F51
         K14Od4O  C2017 09 14.44782 23 35 26.945-04 35 17.17         22.0 GVEF031F51
         K14Od4O  C2017 09 17.38215 23 35 11.594-04 36 52.50         21.8 GVEF031F51
         K14Od4O  C2017 09 17.39386 23 35 11.533-04 36 53.14         22.6 GVEF031F51
         K14Od4O  C2017 09 17.40559 23 35 11.453-04 36 53.69         22.8 GVEF031F51
         K14Od4O  C2017 09 17.41730 23 35 11.398-04 36 53.91         22.4 GVEF031F51
         K14Od4O  C2017 09 25.38534 23 34 29.965-04 41 07.80         22.0 GVEF031F51
         K14Od4O  C2017 09 25.39596 23 34 29.883-04 41 07.99         22.8 GVEF031F51
         K14Od4O  C2017 09 25.40656 23 34 29.827-04 41 08.17         22.4 GVEF031F51
         K14Od4O  C2017 09 25.41716 23 34 29.769-04 41 08.60         22.5 GVEF031F51
         K14Od4O  C2017 09 28.42700 23 34 14.390-04 42 41.44         22.4 GVEF031F51
         K14Od4O  C2017 09 28.43878 23 34 14.321-04 42 41.47         22.0 GVEF031F51
         K14Od4O  C2017 09 28.45052 23 34 14.253-04 42 42.51         22.4 GVEF031F51
         K14Od4O  C2017 09 28.46228 23 34 14.199-04 42 42.69         23.0 GVEF031F51
         K14Od4O KC2017 10 19.37338 23 32 36.396-04 52 15.42         23.4 GVEF031F51
         K14Od4O  C2017 11 13.27855 23 31 17.597-04 59 07.46         22.8 GVEF031F51
         K14Od4O  C2017 11 13.29049 23 31 17.571-04 59 07.56         22.9 GVEF031F51
         K14Od4O  C2017 11 13.30255 23 31 17.539-04 59 07.40         23.1 GVEF031F51
         K14Od4O  C2017 11 13.31453 23 31 17.510-04 59 07.35         22.8 GVEF031F51
         K14Od4O  C2018 07 10.56923 23 47 21.246-03 10 11.12         22.5 GVEF031F51
         K14Od4O  C2018 07 10.58003 23 47 21.227-03 10 11.00         22.8 GVEF031F51
         K14Od4O  C2018 07 10.59098 23 47 21.217-03 10 11.01         22.7 GVEF031F51
         K14Od4O  C2018 07 10.60176 23 47 21.207-03 10 11.12         22.7 GVEF031F51
         K14Od4O  C2018 08 08.49879 23 46 11.580-03 18 21.77         22.9 GVEF031F51
         K14Od4O  C2018 08 08.51059 23 46 11.546-03 18 22.11         23.1 GVEF031F51
         K14Od4O  C2018 08 08.52241 23 46 11.486-03 18 22.39         22.9 GVEF031F51
         K14Od4O  C2018 08 08.53422 23 46 11.462-03 18 22.64         22.9 GVEF031F51
         K14Od4O KC2018 08 17.44815 23 45 36.304-03 22 15.76         24.0 GVEF031F51
    
    Observer details:
    F51 Pan-STARRS 1, Haleakala.  Observers J. Bulger, K. Chambers, B. Gibson,
        T. Goggia, T. Lowe, E. Magnier, N. Primak, A. Schultz, J. Thiel,
        S. Watters, M. Willman.  Measurers S. Chastel, M. Huber, R. Jedicke,
        R. Wainscoat, R. Weryk.  1.8-m Ritchey-Chretien + CCD.
    
    Orbital elements:
    2014 OO394
    Epoch 2019 Apr. 27.0 TT = JDT 2458600.5                 MPC
    M 358.74194              (2000.0)            P               Q
    n   0.00229040     Peri.  336.61594     +0.99960822     +0.01593282
    a  56.9983370      Node    22.50755     -0.00393629     +0.89401995
    e   0.4008930      Incl.    3.44633     -0.02771106     +0.44774376
    P 430              H    7.5           G   0.15           U   2
    Residuals in seconds of arc
    130814 F51  0.1+  0.2-    140917 F51  0.0   0.1-    170914 F51  0.0   0.4+
    130814 F51  0.1+  0.0     140917 F51  0.2+  0.3+    170917 F51  0.1+  0.2+
    130814 F51  0.1-  0.0     140917 F51  0.1+  0.0     170917 F51  0.1+  0.1-
    131021 F51  0.2+  0.2+    140917 F51  0.1+  0.0     170917 F51  0.1-  0.3-
    140726 F51  0.0   0.1+    150723 F51  0.1+  0.1-    170917 F51  0.0   0.1-
    140726 F51  0.0   0.0     150909 F51  0.0   0.0     170925 F51  0.4+  0.2-
    140726 F51  0.3+  0.1+    150909 F51  0.0   0.1+    170925 F51  0.0   0.1-
    140728 F51  0.0   0.0     150909 F51  0.1+  0.1-    170925 F51  0.0   0.1+
    140728 F51  0.0   0.1+    151029 F51  0.1+  0.0     170925 F51  0.0   0.0
    140728 F51  0.2+  0.4+    151102 F51  0.2+  0.3-    170928 F51  0.3+  0.2+
    140728 F51  0.0   0.0     151117 F51  0.1+  0.1-    170928 F51  0.2+  0.6+
    140803 F51  0.0   0.1-    151209 F51  0.0   0.4-    170928 F51  0.1+  0.1-
    140803 F51  0.0   0.2-    151209 F51  0.2-  0.2-    170928 F51  0.2+  0.1+
    140803 F51  0.1-  0.0     151209 F51  0.1+  0.2-    171019 F51  0.5-  0.1-
    140803 F51  0.1-  0.1+    151209 F51  0.1-  0.0     171113 F51  0.1-  0.1-
    140804 F51  0.2-  0.1+    170722 F51  0.1+  0.1-    171113 F51  0.1-  0.1-
    140805 F51  0.1+  0.0     170730 F51  0.1-  0.1-    171113 F51  0.2-  0.2+
    140820 F51  0.2-  0.1+    170801 F51  0.1-  0.2+    171113 F51  0.3-  0.3+
    140820 F51  0.0   0.0     170803 F51  0.2-  0.0     180710 F51  0.0   0.3-
    140820 F51  0.3-  0.0     170803 F51  0.0   0.0     180710 F51  0.1-  0.0
    140822 F51  0.2-  0.2-    170803 F51  0.1+  0.1-    180710 F51  0.1-  0.0
    140822 F51  0.3-  0.1-    170803 F51  0.0   0.1+    180710 F51  0.1-  0.0
    140822 F51  0.3-  0.1-    170817 F51  0.3+  0.2-    180808 F51  0.1-  0.0
    140822 F51  0.2-  0.1-    170817 F51  0.1+  0.3+    180808 F51  0.1+  0.1-
    140828 F51  0.3-  0.0     170817 F51  0.1-  0.1+    180808 F51  0.2-  0.1-
    140828 F51  0.0   0.1+    170817 F51  0.1+  0.1+    180808 F51  0.1+  0.0
    140828 F51  0.1-  0.1-    170914 F51  0.2+  0.0     180817 F51  0.2-  0.2+
    140912 F51  0.3+  0.1+    170914 F51  0.1+  0.0
    
    Ephemeris:
    2014 OO394               a,e,i = 57.00, 0.40, 3                  q = 34.148
    Date    TT    R. A. (2000) Decl.     Delta      r     Elong.  Phase     V
    2019 02 17    23 43 19.3 -03 27 59  35.0443 34.1676    27.1     0.8    23.0
    ...
    2019 03 04    23 45 05.0 -03 16 01  35.1338 34.1666    12.5     0.4    23.0
    ...
    2019 03 12    23 46 03.9 -03 09 27  35.1558 34.1661     4.9     0.1    22.9
    ...
    2019 03 18    23 46 48.4 -03 04 30  35.1603 34.1658     1.9     0.1    22.9
    2019 03 19    23 46 55.9 -03 03 40  35.1600 34.1657     2.5     0.1    22.9
    2019 03 20    23 47 03.3 -03 02 51  35.1595 34.1657     3.4     0.1    22.9
    ...
    2019 03 26    23 47 47.7 -02 57 57  35.1503 34.1653     8.9     0.3    23.0
    ...
    2019 04 03    23 48 46.1 -02 51 34  35.1223 34.1648    16.5     0.5    23.0
    ...
    2019 04 18    23 50 30.3 -02 40 16  35.0233 34.1640    30.7     0.9    23.0
    
    A. U. Tomatic                (C) Copyright 2019 MPC           M.P.E.C. 2019-F31
    

    Read MPEC 2019-F30 Read MPEC 2019-F32


    MPEC number:

    Enter an MPEC number in one of the following forms:

    • 1997-B01 (the full form)
    • J97B01 (the packed version of the full form)
    • B01 (the abbreviated form)